Regional Weather Roundup
Issued by NWS Little Rock, AR

Home | Current Version | Previous Version | Graphics & Text | Print | Product List | Glossary On
Versions: 1 2 3 4 5 6 7 8 9 10 11 12 13 14 15 16 17 18 19 20 21 22 23 24 25 26 27 28 29 30 31 32 33 34 35 36 37 38 39 40 41 42 43 44 45 46 47 48 49 50
000
ASUS44 KLZK 290005
RWRLZK

WEATHER ROUNDUP FOR ARKANSAS
NATIONAL WEATHER SERVICE LITTLE ROCK AR
600 PM CST WED JAN 28 2015

NOTE: "FAIR" INDICATES FEW OR NO CLOUDS BELOW 12,000 FEET WITH NO
SIGNIFICANT WEATHER AND/OR OBSTRUCTIONS TO VISIBILITY.

ARZ001-003-010-029-290100-
NORTHWEST ARKANSAS

CITY           SKY/WX    TMP DP  RH WIND       PRES   REMARKS
FAYETTEVILLE   CLOUDY    59  42  53 S8        29.93S
6HR MIN TEMP:  59; 6HR MAX TEMP:  68; 6HR PCP: TRACE;

FORT SMITH     MOCLDY    62  43  49 NE6       29.94F
6HR MIN TEMP:  59; 6HR MAX TEMP:  73;

HARRISON       MOCLDY    59  40  49 S15G24    29.95F
6HR MIN TEMP:  58; 6HR MAX TEMP:  68;

BENTONVILLE    MOCLDY    64  39  39 S14G21    29.92R
6HR MIN TEMP:  64; 6HR MAX TEMP:  72;

ROGERS         MOCLDY    63  41  44 S14       29.92R
6HR MIN TEMP:  63; 6HR MAX TEMP:  71;

SILOAM SPGS    CLOUDY    64  39  39 S15       29.92R
HIGHFILL       CLOUDY    63  41  44 S14       29.90F
6HR MIN TEMP:  63; 6HR MAX TEMP:  71; 6HR PCP: TRACE;

SPRINGDALE     PTCLDY    64  41  42 S17G29    29.94F
$$

ARZ004-005-016-290100-
NORTH CENTRAL ARKANSAS

CITY           SKY/WX    TMP DP  RH WIND       PRES   REMARKS
BATESVILLE     MOCLDY    54  36  50 SE9       30.04S
6HR MIN TEMP:  54; 6HR MAX TEMP:  59;

FLIPPIN        MOCLDY    57  36  44 S8        29.99R
6HR MIN TEMP:  55; 6HR MAX TEMP:  64;

MTN HOME       MOCLDY    56  37  49 S8        29.99R
6HR MIN TEMP:  55; 6HR MAX TEMP:  64;

$$

ARZ040-041-290100-
WEST CENTRAL ARKANSAS

CITY           SKY/WX    TMP DP  RH WIND       PRES   REMARKS
MENA           PTCLDY    72  46  40 S9        30.01S
MOUNT IDA      MOCLDY    68  44  42 MISG      30.00S
6HR MIN TEMP:  63; 6HR MAX TEMP:  72;

$$

ARZ009-017-025-026-028-290100-
NORTHEAST ARKANSAS

CITY           SKY/WX    TMP DP  RH WIND       PRES   REMARKS
CORNING        FAIR      46  37  71 S9        30.06F
JONESBORO      PTCLDY    50  38  63 S10       30.06F
6HR MIN TEMP:  46; 6HR MAX TEMP:  55;

NEWPORT        PTCLDY    52  40  63 S13       30.07F
6HR MIN TEMP:  51; 6HR MAX TEMP:  58;

WALNUT RIDGE   PTCLDY    46  37  71 S9        30.05F
6HR MIN TEMP:  46; 6HR MAX TEMP:  55;

BLYTHEVILLE    CLEAR     49  34  56 SE8       30.08F
6HR MIN TEMP:  45; 6HR MAX TEMP:  56;

$$

ARZ022-023-033-042-044-290100-
CENTRAL ARKANSAS

CITY           SKY/WX    TMP DP  RH WIND       PRES   REMARKS
LITTLE ROCK    MOCLDY    58  39  49 SE12      30.05F
6HR MIN TEMP:  57; 6HR MAX TEMP:  64;

N LITTLE ROCK  MOCLDY    57  44  60 SE12G18   30.05F
6HR MIN TEMP:  54; 6HR MAX TEMP:  62;

JACKSONVILLE   PTCLDY    57  40  52 VRB2      30.05S
6HR MIN TEMP:  54; 6HR MAX TEMP:  63;

SEARCY         PTCLDY    54  39  57 S8        30.07F
6HR MIN TEMP:  53; 6HR MAX TEMP:  61;

HOT SPRINGS    MOCLDY    65  44  46 SE5       30.04R
6HR MIN TEMP:  58; 6HR MAX TEMP:  69;

RUSSELLVILLE   MOCLDY    62  42  47 E3        30.01R
6HR MIN TEMP:  54; 6HR MAX TEMP:  67;

CLINTON        FAIR      52  37  58 SE6       30.05R
$$

ARZ036-290100-
EAST ARKANSAS

CITY           SKY/WX    TMP DP  RH WIND       PRES   REMARKS
WEST MEMPHIS   PTCLDY    49  37  63 SE9       30.08F
6HR MIN TEMP:  49; 6HR MAX TEMP:  59;

$$

ARZ050-053-066-070-073-290100-
SOUTHWEST ARKANSAS

CITY           SKY/WX    TMP DP  RH WIND       PRES   REMARKS
ARKADELPHIA    FAIR      63  46  53 S3        30.05R
6HR MIN TEMP:  62; 6HR MAX TEMP:  73;

CAMDEN         MOCLDY    64  39  39 MISG      30.05R
TEXARKANA      MOCLDY    70  43  37 S10       30.04R
6HR MIN TEMP:  69; 6HR MAX TEMP:  77;

EL DORADO      MOCLDY    65  42  43 S6        30.06F
6HR MIN TEMP:  65; 6HR MAX TEMP:  74;

DE QUEEN       CLOUDY    71  45  39 S7        29.99S
6HR MIN TEMP:  64; 6HR MAX TEMP:  78;

$$

ARZ056-057-069-290100-
SOUTHEAST ARKANSAS

CITY           SKY/WX    TMP DP  RH WIND       PRES   REMARKS
PINE BLUFF     PTCLDY    55  43  63 SE10      30.07F
6HR MIN TEMP:  55; 6HR MAX TEMP:  64;

STUTTGART      PTCLDY    55  39  54 SE15      30.07F
6HR MIN TEMP:  54; 6HR MAX TEMP:  63;

MONTICELLO     PTCLDY    60  41  49 SE6       30.09F
6HR MIN TEMP:  59; 6HR MAX TEMP:  66; 6HR PCP: TRACE;


$$




USA.gov is the U.S. government's official web portal to all federal, state and local government web resources and services.